Location: Middlebury
(44.0153°N, 73.1678°W)
Time: 22:22:35
(UTC-05:00)

ISS - Visible Passes

Search period start: 21 January 2021 00:00
Search period end: 31 January 2021 00:00
Orbit: 418 x 421 km, 51.6° (Epoch: 22 January)

Date Brightness Start Highest point End Pass type
(mag) Time Alt. Az. Time Alt. Az. Time Alt. Az.
21 Jan -3.8 18:06:28 10° WSW 18:09:51 88° NNW 18:11:23 30° ENE visible
21 Jan -0.3 19:44:05 10° WNW 19:44:22 12° WNW 19:44:22 12° WNW visible
22 Jan -3.5 17:19:11 10° SW 17:22:30 58° SE 17:25:50 10° ENE visible
22 Jan -2.2 18:56:25 10° W 18:59:02 30° NW 18:59:02 30° NW visible
23 Jan -2.8 18:08:46 10° W 18:11:59 40° NNW 18:13:40 23° NE visible
24 Jan -3.3 17:21:12 10° WSW 17:24:32 57° NNW 17:27:53 10° NE visible
24 Jan -1.7 18:59:04 10° WNW 19:01:13 22° NNW 19:01:13 22° NNW visible
25 Jan -2.2 18:11:22 10° WNW 18:14:16 26° NNW 18:15:46 19° NNE visible
26 Jan -2.4 17:23:39 10° W 17:26:43 31° NNW 17:29:47 10° NE visible
26 Jan -1.6 19:01:31 10° NW 19:03:16 19° NNW 19:03:16 19° NNW visible
27 Jan -2.0 18:13:54 10° NW 18:16:36 22° N 18:17:48 18° NNE visible
28 Jan -2.1 17:26:12 10° WNW 17:28:59 23° N 17:31:46 10° NE visible
28 Jan -1.7 19:03:36 10° NW 19:05:18 21° NNW 19:05:18 21° NNW visible
29 Jan -2.2 18:16:08 10° NW 18:18:56 23° N 18:19:51 21° NNE visible
30 Jan -2.1 17:28:34 10° NW 17:31:17 22° N 17:33:59 10° NE visible
30 Jan -2.1 19:05:27 10° NW 19:07:25 28° NNW 19:07:25 28° NNW visible
